Location: Newark
(33.6439°N, 114.9881°W)
Time: 08:36:40
(UTC+00:00)

ISS - Visible Passes

Search period start: 14 October 2019 00:00
Search period end: 24 October 2019 00:00
Orbit: 411 x 421 km, 51.6° (Epoch: 14 October)

Date Brightness Start Highest point End Pass type
(mag) Time Alt. Az. Time Alt. Az. Time Alt. Az.
15 Oct -0.7 01:30:37 10° W 01:32:39 15° SW 01:34:39 10° SSW visible
21 Oct -1.3 13:18:20 10° S 13:21:10 26° SE 13:24:02 10° ENE visible
22 Oct -0.7 12:30:59 10° SSE 12:32:46 14° SE 12:34:32 10° E visible
23 Oct -3.8 13:17:14 10° SW 13:20:36 85° NW 13:23:57 10° NE visible
